Year,Month,Day,Hour,Minute,Value (Times are PST for temperature in C)
2018,06,17,00,00,18.20
2018,06,17,00,01,18.20
2018,06,17,00,02,18.20
2018,06,17,00,03,18.20
2018,06,17,00,04,18.20
2018,06,17,00,05,18.20
2018,06,17,00,06,18.20
2018,06,17,00,07,18.20
2018,06,17,00,08,18.30
2018,06,17,00,09,18.30
2018,06,17,00,10,18.40
2018,06,17,00,11,18.40
2018,06,17,00,12,18.40
2018,06,17,00,13,18.40
2018,06,17,00,14,18.40
2018,06,17,00,15,18.30
2018,06,17,00,16,18.30
2018,06,17,00,17,18.30
2018,06,17,00,18,18.30
2018,06,17,00,19,18.30
2018,06,17,00,20,18.30
2018,06,17,00,21,18.30
2018,06,17,00,22,18.40
2018,06,17,00,23,18.40
2018,06,17,00,24,18.40
2018,06,17,00,25,18.50
2018,06,17,00,26,18.50
2018,06,17,00,27,18.60
2018,06,17,00,28,18.60
2018,06,17,00,29,18.60
2018,06,17,00,30,18.60
2018,06,17,00,31,18.60
2018,06,17,00,32,18.50
2018,06,17,00,33,18.50
2018,06,17,00,34,18.50
2018,06,17,00,35,18.50
2018,06,17,00,36,18.50
2018,06,17,00,37,18.50
2018,06,17,00,38,18.50
2018,06,17,00,39,18.50
2018,06,17,00,40,18.50
2018,06,17,00,41,18.60
2018,06,17,00,42,18.60
2018,06,17,00,43,18.60
2018,06,17,00,44,18.60
2018,06,17,00,45,18.60
2018,06,17,00,46,18.60
2018,06,17,00,47,18.60
2018,06,17,00,48,18.50
2018,06,17,00,49,18.50
2018,06,17,00,50,18.50
2018,06,17,00,51,18.50
2018,06,17,00,52,18.40
2018,06,17,00,53,18.40
2018,06,17,00,54,18.40
2018,06,17,00,55,18.30
2018,06,17,00,56,18.30
2018,06,17,00,57,18.30
2018,06,17,00,58,18.20
2018,06,17,00,59,18.20
2018,06,17,01,00,18.20
2018,06,17,01,01,18.20
2018,06,17,01,02,18.20
2018,06,17,01,03,18.20
2018,06,17,01,04,18.10
2018,06,17,01,05,18.10
2018,06,17,01,06,18.10
2018,06,17,01,07,18.00
2018,06,17,01,08,17.90
2018,06,17,01,09,17.90
2018,06,17,01,10,17.90
2018,06,17,01,11,17.90
2018,06,17,01,12,17.90
2018,06,17,01,13,17.90
2018,06,17,01,14,17.90
2018,06,17,01,15,17.90
2018,06,17,01,16,17.80
2018,06,17,01,17,17.80
2018,06,17,01,18,17.70
2018,06,17,01,19,17.70
2018,06,17,01,20,17.70
2018,06,17,01,21,17.60
2018,06,17,01,22,17.50
2018,06,17,01,23,17.50
2018,06,17,01,24,17.40
2018,06,17,01,25,17.40
2018,06,17,01,26,17.30
2018,06,17,01,27,17.30
2018,06,17,01,28,17.30
2018,06,17,01,29,17.30
2018,06,17,01,30,17.20
2018,06,17,01,31,17.20
2018,06,17,01,32,17.10
2018,06,17,01,33,17.10
2018,06,17,01,34,17.00
2018,06,17,01,35,17.00
2018,06,17,01,36,17.00
2018,06,17,01,37,16.90
2018,06,17,01,38,16.90
2018,06,17,01,39,16.90
2018,06,17,01,40,16.80
2018,06,17,01,41,16.80
2018,06,17,01,42,16.80
2018,06,17,01,43,16.80
2018,06,17,01,44,16.70
2018,06,17,01,45,16.70
2018,06,17,01,46,16.70
2018,06,17,01,47,16.70
2018,06,17,01,48,16.70
2018,06,17,01,49,16.60
2018,06,17,01,50,16.60
2018,06,17,01,51,16.60
2018,06,17,01,52,16.60
2018,06,17,01,53,16.60
2018,06,17,01,54,16.60
2018,06,17,01,55,16.60
2018,06,17,01,56,16.60
2018,06,17,01,57,16.50
2018,06,17,01,58,16.40
2018,06,17,01,59,16.40
2018,06,17,02,00,16.40
2018,06,17,02,01,16.40
2018,06,17,02,02,16.40
2018,06,17,02,03,16.40
2018,06,17,02,04,16.40
2018,06,17,02,05,16.40
2018,06,17,02,06,16.30
2018,06,17,02,07,16.30
2018,06,17,02,08,16.30
2018,06,17,02,09,16.20
2018,06,17,02,10,16.20
2018,06,17,02,11,16.20
2018,06,17,02,12,16.10
2018,06,17,02,13,16.10
2018,06,17,02,14,16.10
2018,06,17,02,15,16.10
2018,06,17,02,16,16.10
2018,06,17,02,17,16.00
2018,06,17,02,18,15.90
2018,06,17,02,19,15.90
2018,06,17,02,20,15.90
2018,06,17,02,21,15.80
2018,06,17,02,22,15.80
2018,06,17,02,23,15.80
2018,06,17,02,24,15.80
2018,06,17,02,25,15.70
2018,06,17,02,26,15.70
2018,06,17,02,27,15.60
2018,06,17,02,28,15.60
2018,06,17,02,29,15.60
2018,06,17,02,30,15.50
2018,06,17,02,31,15.50
2018,06,17,02,32,15.50
2018,06,17,02,33,15.40
2018,06,17,02,34,15.40
2018,06,17,02,35,15.40
2018,06,17,02,36,15.40
2018,06,17,02,37,15.30
2018,06,17,02,38,15.30
2018,06,17,02,39,15.30
2018,06,17,02,40,15.30
2018,06,17,02,41,15.30
2018,06,17,02,42,15.30
2018,06,17,02,43,15.30
2018,06,17,02,44,15.30
2018,06,17,02,45,15.30
2018,06,17,02,46,15.30
2018,06,17,02,47,15.30
2018,06,17,02,48,15.20
2018,06,17,02,49,15.20
2018,06,17,02,50,15.20
2018,06,17,02,51,15.20
2018,06,17,02,52,15.20
2018,06,17,02,53,15.20
2018,06,17,02,54,15.20
2018,06,17,02,55,15.20
2018,06,17,02,56,15.20
2018,06,17,02,57,15.20
2018,06,17,02,58,15.20
2018,06,17,02,59,15.20
2018,06,17,03,00,15.20
2018,06,17,03,01,15.20
2018,06,17,03,02,15.10
2018,06,17,03,03,15.10
2018,06,17,03,04,15.10
2018,06,17,03,05,15.10
2018,06,17,03,06,15.10
2018,06,17,03,07,15.10
2018,06,17,03,08,15.00
2018,06,17,03,09,15.00
2018,06,17,03,10,15.00
2018,06,17,03,11,15.00
2018,06,17,03,12,14.90
2018,06,17,03,13,14.90
2018,06,17,03,14,14.90
2018,06,17,03,15,14.80
2018,06,17,03,16,14.80
2018,06,17,03,17,14.80
2018,06,17,03,18,14.80
2018,06,17,03,19,14.80
2018,06,17,03,20,14.80
2018,06,17,03,21,14.80
2018,06,17,03,22,14.70
2018,06,17,03,23,14.70
2018,06,17,03,24,14.70
2018,06,17,03,25,14.60
2018,06,17,03,26,14.60
2018,06,17,03,27,14.60
2018,06,17,03,28,14.60
2018,06,17,03,29,14.60
2018,06,17,03,30,14.50
2018,06,17,03,31,14.50
2018,06,17,03,32,14.50
2018,06,17,03,33,14.50
2018,06,17,03,34,14.40
2018,06,17,03,35,14.40
2018,06,17,03,36,14.40
2018,06,17,03,37,14.30
2018,06,17,03,38,14.30
2018,06,17,03,39,14.30
2018,06,17,03,40,14.20
2018,06,17,03,41,14.20
2018,06,17,03,42,14.20
2018,06,17,03,43,14.20
2018,06,17,03,44,14.20
2018,06,17,03,45,14.10
2018,06,17,03,46,14.10
2018,06,17,03,47,14.00
2018,06,17,03,48,14.00
2018,06,17,03,49,14.00
2018,06,17,03,50,14.00
2018,06,17,03,51,14.00
2018,06,17,03,52,14.00
2018,06,17,03,53,14.00
2018,06,17,03,54,14.00
2018,06,17,03,55,14.00
2018,06,17,03,56,13.90
2018,06,17,03,57,13.90
2018,06,17,03,58,13.90
2018,06,17,03,59,13.90
2018,06,17,04,00,13.90
2018,06,17,04,01,13.80
2018,06,17,04,02,13.80
2018,06,17,04,03,13.80
2018,06,17,04,04,13.80
2018,06,17,04,05,13.70
2018,06,17,04,06,13.70
2018,06,17,04,07,13.70
2018,06,17,04,08,13.70
2018,06,17,04,09,13.70
2018,06,17,04,10,13.70
2018,06,17,04,11,13.70
2018,06,17,04,12,13.70
2018,06,17,04,13,13.70
2018,06,17,04,14,13.70
2018,06,17,04,15,13.70
2018,06,17,04,16,13.60
2018,06,17,04,17,13.60
2018,06,17,04,18,13.60
2018,06,17,04,19,13.60
2018,06,17,04,20,13.50
2018,06,17,04,21,13.50
2018,06,17,04,22,13.40
2018,06,17,04,23,13.40
2018,06,17,04,24,13.30
2018,06,17,04,25,13.30
2018,06,17,04,26,13.30
2018,06,17,04,27,13.30
2018,06,17,04,28,13.30
2018,06,17,04,29,13.20
2018,06,17,04,30,13.20
2018,06,17,04,31,13.20
2018,06,17,04,32,13.20
2018,06,17,04,33,13.10
2018,06,17,04,34,13.10
2018,06,17,04,35,13.10
2018,06,17,04,36,13.10
2018,06,17,04,37,13.00
2018,06,17,04,38,13.00
2018,06,17,04,39,13.00
2018,06,17,04,40,12.90
2018,06,17,04,41,12.90
2018,06,17,04,42,12.90
2018,06,17,04,43,12.90
2018,06,17,04,44,12.80
2018,06,17,04,45,12.80
2018,06,17,04,46,12.80
2018,06,17,04,47,12.80
2018,06,17,04,48,12.80
2018,06,17,04,49,12.80
2018,06,17,04,50,12.80
2018,06,17,04,51,12.80
2018,06,17,04,52,12.80
2018,06,17,04,53,12.80
2018,06,17,04,54,12.80
2018,06,17,04,55,12.80
2018,06,17,04,56,12.80
2018,06,17,04,57,12.80
2018,06,17,04,58,12.80
2018,06,17,04,59,12.80
2018,06,17,05,00,12.80
2018,06,17,05,01,12.70
2018,06,17,05,02,12.70
2018,06,17,05,03,12.70
2018,06,17,05,04,12.70
2018,06,17,05,05,12.70
2018,06,17,05,06,12.60
2018,06,17,05,07,12.60
2018,06,17,05,08,12.60
2018,06,17,05,09,12.50
2018,06,17,05,10,12.50
2018,06,17,05,11,12.50
2018,06,17,05,12,12.50
2018,06,17,05,13,12.40
2018,06,17,05,14,12.40
2018,06,17,05,15,12.40
2018,06,17,05,16,12.40
2018,06,17,05,17,12.40
2018,06,17,05,18,12.40
2018,06,17,05,19,12.40
2018,06,17,05,20,12.40
2018,06,17,05,21,12.40
2018,06,17,05,22,12.40
2018,06,17,05,23,12.30
2018,06,17,05,24,12.30
2018,06,17,05,25,12.30
2018,06,17,05,26,12.30
2018,06,17,05,27,12.30
2018,06,17,05,28,12.30
2018,06,17,05,29,12.30
2018,06,17,05,30,12.30
2018,06,17,05,31,12.30
2018,06,17,05,32,12.30
2018,06,17,05,33,12.30
2018,06,17,05,34,12.30
2018,06,17,05,35,12.30
2018,06,17,05,36,12.30
2018,06,17,05,37,12.30
2018,06,17,05,38,12.30
2018,06,17,05,39,12.30
2018,06,17,05,40,12.30
2018,06,17,05,41,12.30
2018,06,17,05,42,12.30
2018,06,17,05,43,12.30
2018,06,17,05,44,12.30
2018,06,17,05,45,12.30
2018,06,17,05,46,12.30
2018,06,17,05,47,12.30
2018,06,17,05,48,12.30
2018,06,17,05,49,12.30
2018,06,17,05,50,12.30
2018,06,17,05,51,12.30
2018,06,17,05,52,12.30
2018,06,17,05,53,12.30
2018,06,17,05,54,12.30
2018,06,17,05,55,12.30
2018,06,17,05,56,12.30
2018,06,17,05,57,12.30
2018,06,17,05,58,12.30
2018,06,17,05,59,12.30
2018,06,17,06,00,12.40
2018,06,17,06,01,12.50
2018,06,17,06,02,12.50
2018,06,17,06,03,12.60
2018,06,17,06,04,12.60
2018,06,17,06,05,12.60
2018,06,17,06,06,12.70
2018,06,17,06,07,12.70
2018,06,17,06,08,12.80
2018,06,17,06,09,12.80
2018,06,17,06,10,12.80
2018,06,17,06,11,12.90
2018,06,17,06,12,13.00
2018,06,17,06,13,13.00
2018,06,17,06,14,13.10
2018,06,17,06,15,13.10
2018,06,17,06,16,13.20
2018,06,17,06,17,13.20
2018,06,17,06,18,13.20
2018,06,17,06,19,13.20
2018,06,17,06,20,13.20
2018,06,17,06,21,13.20
2018,06,17,06,22,13.30
2018,06,17,06,23,13.30
2018,06,17,06,24,13.30
2018,06,17,06,25,13.40
2018,06,17,06,26,13.40
2018,06,17,06,27,13.40
2018,06,17,06,28,13.40
2018,06,17,06,29,13.50
2018,06,17,06,30,13.50
2018,06,17,06,31,13.60
2018,06,17,06,32,13.60
2018,06,17,06,33,13.60
2018,06,17,06,34,13.60
2018,06,17,06,35,13.60
2018,06,17,06,36,13.70
2018,06,17,06,37,13.70
2018,06,17,06,38,13.70
2018,06,17,06,39,13.70
2018,06,17,06,40,13.80
2018,06,17,06,41,13.80
2018,06,17,06,42,13.90
2018,06,17,06,43,13.90
2018,06,17,06,44,14.00
2018,06,17,06,45,14.00
2018,06,17,06,46,14.10
2018,06,17,06,47,14.20
2018,06,17,06,48,14.40
2018,06,17,06,49,14.50
2018,06,17,06,50,14.70
2018,06,17,06,51,14.80
2018,06,17,06,52,14.90
2018,06,17,06,53,15.00
2018,06,17,06,54,15.10
2018,06,17,06,55,15.30
2018,06,17,06,56,15.40
2018,06,17,06,57,15.50
2018,06,17,06,58,15.60
2018,06,17,06,59,15.80
2018,06,17,07,00,15.80
2018,06,17,07,01,15.90
2018,06,17,07,02,16.00
2018,06,17,07,03,16.10
2018,06,17,07,04,16.30
2018,06,17,07,05,16.40
2018,06,17,07,06,16.50
2018,06,17,07,07,16.70
2018,06,17,07,08,16.80
2018,06,17,07,09,16.90
2018,06,17,07,10,16.90
2018,06,17,07,11,16.90
2018,06,17,07,12,17.00
2018,06,17,07,13,17.00
2018,06,17,07,14,16.90
2018,06,17,07,15,17.00
2018,06,17,07,16,17.00
2018,06,17,07,17,17.00
2018,06,17,07,18,17.00
2018,06,17,07,19,17.00
2018,06,17,07,20,17.00
2018,06,17,07,21,17.00
2018,06,17,07,22,17.00
2018,06,17,07,23,17.10
2018,06,17,07,24,17.10
2018,06,17,07,25,17.10
2018,06,17,07,26,17.30
2018,06,17,07,27,17.30
2018,06,17,07,28,17.40
2018,06,17,07,29,17.40
2018,06,17,07,30,17.50
2018,06,17,07,31,17.50
2018,06,17,07,32,17.60
2018,06,17,07,33,17.60
2018,06,17,07,34,17.70
2018,06,17,07,35,17.80
2018,06,17,07,36,17.90
2018,06,17,07,37,18.00
2018,06,17,07,38,18.10
2018,06,17,07,39,18.20
2018,06,17,07,40,18.20
2018,06,17,07,41,18.30
2018,06,17,07,42,18.40
2018,06,17,07,43,18.50
2018,06,17,07,44,18.60
2018,06,17,07,45,18.70
2018,06,17,07,46,18.80
2018,06,17,07,47,18.90
2018,06,17,07,48,19.00
2018,06,17,07,49,19.10
2018,06,17,07,50,19.20
2018,06,17,07,51,19.30
2018,06,17,07,52,19.40
2018,06,17,07,53,19.40
2018,06,17,07,54,19.50
2018,06,17,07,55,19.50
2018,06,17,07,56,19.50
2018,06,17,07,57,19.60
2018,06,17,07,58,19.60
2018,06,17,07,59,19.60
2018,06,17,08,00,19.70
2018,06,17,08,01,19.80
2018,06,17,08,02,19.80
2018,06,17,08,03,19.90
2018,06,17,08,04,19.90
2018,06,17,08,05,19.90
2018,06,17,08,06,20.00
2018,06,17,08,07,20.10
2018,06,17,08,08,20.10
2018,06,17,08,09,20.10
2018,06,17,08,10,20.10
2018,06,17,08,11,20.10
2018,06,17,08,12,20.20
2018,06,17,08,13,20.20
2018,06,17,08,14,20.20
2018,06,17,08,15,20.20
2018,06,17,08,16,20.40
2018,06,17,08,17,20.50
2018,06,17,08,18,20.50
2018,06,17,08,19,20.70
2018,06,17,08,20,20.80
2018,06,17,08,21,21.00
2018,06,17,08,22,21.00
2018,06,17,08,23,21.10
2018,06,17,08,24,21.20
2018,06,17,08,25,21.30
2018,06,17,08,26,21.40
2018,06,17,08,27,21.50
2018,06,17,08,28,21.60
2018,06,17,08,29,21.60
2018,06,17,08,30,21.70
2018,06,17,08,31,21.80
2018,06,17,08,32,21.90
2018,06,17,08,33,22.00
2018,06,17,08,34,22.00
2018,06,17,08,35,22.10
2018,06,17,08,36,22.10
2018,06,17,08,37,22.10
2018,06,17,08,38,22.10
2018,06,17,08,39,22.10
2018,06,17,08,40,22.10
2018,06,17,08,41,22.10
2018,06,17,08,42,22.10
2018,06,17,08,43,22.10
2018,06,17,08,44,22.10
2018,06,17,08,45,22.10
2018,06,17,08,46,22.20
2018,06,17,08,47,22.20
2018,06,17,08,48,22.20
2018,06,17,08,49,22.20
2018,06,17,08,50,22.30
2018,06,17,08,51,22.20
2018,06,17,08,52,22.20
2018,06,17,08,53,22.20
2018,06,17,08,54,22.10
2018,06,17,08,55,22.00
2018,06,17,08,56,22.00
2018,06,17,08,57,21.90
2018,06,17,08,58,21.90
2018,06,17,08,59,21.90
2018,06,17,09,00,21.90
2018,06,17,09,01,21.90
2018,06,17,09,02,21.90
2018,06,17,09,03,21.90
2018,06,17,09,04,21.90
2018,06,17,09,05,21.90
2018,06,17,09,06,22.00
2018,06,17,09,07,22.00
2018,06,17,09,08,22.00
2018,06,17,09,09,22.00
2018,06,17,09,10,22.00
2018,06,17,09,11,22.00
2018,06,17,09,12,22.00
2018,06,17,09,13,22.10
2018,06,17,09,14,22.10
2018,06,17,09,15,22.10
2018,06,17,09,16,22.10
2018,06,17,09,17,22.20
2018,06,17,09,18,22.30
2018,06,17,09,19,22.30
2018,06,17,09,20,22.40
2018,06,17,09,21,22.50
2018,06,17,09,22,22.60
2018,06,17,09,23,22.70
2018,06,17,09,24,22.70
2018,06,17,09,25,22.60
2018,06,17,09,26,22.60
2018,06,17,09,27,22.60
2018,06,17,09,28,22.60
2018,06,17,09,29,22.60
2018,06,17,09,30,22.60
2018,06,17,09,31,22.60
2018,06,17,09,32,22.50
2018,06,17,09,33,22.40
2018,06,17,09,34,22.30
2018,06,17,09,35,22.20
2018,06,17,09,36,22.20
2018,06,17,09,37,22.20
2018,06,17,09,38,22.20
2018,06,17,09,39,22.20
2018,06,17,09,40,22.30
2018,06,17,09,41,22.30
2018,06,17,09,42,22.40
2018,06,17,09,43,22.40
2018,06,17,09,44,22.40
2018,06,17,09,45,22.40
2018,06,17,09,46,22.40
2018,06,17,09,47,22.40
2018,06,17,09,48,22.40
2018,06,17,09,49,22.30
2018,06,17,09,50,22.30
2018,06,17,09,51,22.30
2018,06,17,09,52,22.20
2018,06,17,09,53,22.20
2018,06,17,09,54,22.30
2018,06,17,09,55,22.30
2018,06,17,09,56,22.30
2018,06,17,09,57,22.30
2018,06,17,09,58,22.30
2018,06,17,09,59,22.40
2018,06,17,10,00,22.40
2018,06,17,10,01,22.40
2018,06,17,10,02,22.50
2018,06,17,10,03,22.50
2018,06,17,10,04,22.60
2018,06,17,10,05,22.60
2018,06,17,10,06,22.70
2018,06,17,10,07,22.70
2018,06,17,10,08,22.70
2018,06,17,10,09,22.60
2018,06,17,10,10,22.60
2018,06,17,10,11,22.50
2018,06,17,10,12,22.50
2018,06,17,10,13,22.50
2018,06,17,10,14,22.50
2018,06,17,10,15,22.40
2018,06,17,10,16,22.40
2018,06,17,10,17,22.30
2018,06,17,10,18,22.30
2018,06,17,10,19,22.40
2018,06,17,10,20,22.50
2018,06,17,10,21,22.50
2018,06,17,10,22,22.50
2018,06,17,10,23,22.50
2018,06,17,10,24,22.50
2018,06,17,10,25,22.50
2018,06,17,10,26,22.60
2018,06,17,10,27,22.70
2018,06,17,10,28,22.70
2018,06,17,10,29,22.60
2018,06,17,10,30,22.60
2018,06,17,10,31,22.60
2018,06,17,10,32,22.50
2018,06,17,10,33,22.50
2018,06,17,10,34,22.60
2018,06,17,10,35,22.60
2018,06,17,10,36,22.70
2018,06,17,10,37,22.80
2018,06,17,10,38,22.80
2018,06,17,10,39,22.90
2018,06,17,10,40,22.90
2018,06,17,10,41,22.90
2018,06,17,10,42,23.00
2018,06,17,10,43,23.10
2018,06,17,10,44,23.10
2018,06,17,10,45,23.20
2018,06,17,10,46,23.30
2018,06,17,10,47,23.30
2018,06,17,10,48,23.20
2018,06,17,10,49,23.20
2018,06,17,10,50,23.20
2018,06,17,10,51,23.20
2018,06,17,10,52,23.20
2018,06,17,10,53,23.20
2018,06,17,10,54,23.20
2018,06,17,10,55,23.20
2018,06,17,10,56,23.10
2018,06,17,10,57,23.00
2018,06,17,10,58,22.90
2018,06,17,10,59,22.90
2018,06,17,11,00,22.80
2018,06,17,11,01,22.70
2018,06,17,11,02,22.60
2018,06,17,11,03,22.50
2018,06,17,11,04,22.40
2018,06,17,11,05,22.40
2018,06,17,11,06,22.40
2018,06,17,11,07,22.40
2018,06,17,11,08,22.40
2018,06,17,11,09,22.40
2018,06,17,11,10,22.40
2018,06,17,11,11,22.40
2018,06,17,11,12,22.40
2018,06,17,11,13,22.40
2018,06,17,11,14,22.40
2018,06,17,11,15,22.30
2018,06,17,11,16,22.30
2018,06,17,11,17,22.40
2018,06,17,11,18,22.40
2018,06,17,11,19,22.30
2018,06,17,11,20,22.30
2018,06,17,11,21,22.30
2018,06,17,11,22,22.40
2018,06,17,11,23,22.50
2018,06,17,11,24,22.60
2018,06,17,11,25,22.70
2018,06,17,11,26,22.80
2018,06,17,11,27,22.90
2018,06,17,11,28,22.90
2018,06,17,11,29,22.90
2018,06,17,11,30,22.90
2018,06,17,11,31,22.90
2018,06,17,11,32,23.00
2018,06,17,11,33,23.20
2018,06,17,11,34,23.20
2018,06,17,11,35,23.20
2018,06,17,11,36,23.30
2018,06,17,11,37,23.30
2018,06,17,11,38,23.30
2018,06,17,11,39,23.30
2018,06,17,11,40,23.40
2018,06,17,11,41,23.40
2018,06,17,11,42,23.60
2018,06,17,11,43,23.60
2018,06,17,11,44,23.70
2018,06,17,11,45,23.70
2018,06,17,11,46,23.80
2018,06,17,11,47,23.80
2018,06,17,11,48,23.80
2018,06,17,11,49,23.80
2018,06,17,11,50,23.90
2018,06,17,11,51,24.00
2018,06,17,11,52,24.10
2018,06,17,11,53,24.10
2018,06,17,11,54,24.10
2018,06,17,11,55,24.10
2018,06,17,11,56,23.90
2018,06,17,11,57,23.70
2018,06,17,11,58,23.70
2018,06,17,11,59,23.60
2018,06,17,12,00,23.60
2018,06,17,12,01,23.70
2018,06,17,12,02,23.70
2018,06,17,12,03,23.60
2018,06,17,12,04,23.50
2018,06,17,12,05,23.40
2018,06,17,12,06,23.50
2018,06,17,12,07,23.60
2018,06,17,12,08,23.70
2018,06,17,12,09,23.90
2018,06,17,12,10,24.00
2018,06,17,12,11,24.10
2018,06,17,12,12,24.10
2018,06,17,12,13,24.10
2018,06,17,12,14,24.10
2018,06,17,12,15,24.10
2018,06,17,12,16,24.10
2018,06,17,12,17,24.10
2018,06,17,12,18,24.10
2018,06,17,12,19,24.00
2018,06,17,12,20,23.90
2018,06,17,12,21,24.00
2018,06,17,12,22,24.10
2018,06,17,12,23,24.10
2018,06,17,12,24,24.10
2018,06,17,12,25,24.10
2018,06,17,12,26,24.00
2018,06,17,12,27,23.90
2018,06,17,12,28,24.00
2018,06,17,12,29,24.10
2018,06,17,12,30,24.10
2018,06,17,12,31,24.00
2018,06,17,12,32,23.90
2018,06,17,12,33,23.90
2018,06,17,12,34,24.00
2018,06,17,12,35,24.10
2018,06,17,12,36,24.10
2018,06,17,12,37,24.10
2018,06,17,12,38,24.10
2018,06,17,12,39,24.10
2018,06,17,12,40,24.10
2018,06,17,12,41,24.10
2018,06,17,12,42,24.20
2018,06,17,12,43,24.30
2018,06,17,12,44,24.40
2018,06,17,12,45,24.40
2018,06,17,12,46,24.50
2018,06,17,12,47,24.60
2018,06,17,12,48,24.70
2018,06,17,12,49,24.80
2018,06,17,12,50,24.80
2018,06,17,12,51,24.80
2018,06,17,12,52,24.80
2018,06,17,12,53,24.90
2018,06,17,12,54,24.90
2018,06,17,12,55,24.90
2018,06,17,12,56,24.80
2018,06,17,12,57,24.80
2018,06,17,12,58,24.70
2018,06,17,12,59,24.70
2018,06,17,13,00,24.80
2018,06,17,13,01,24.90
2018,06,17,13,02,24.90
2018,06,17,13,03,24.90
2018,06,17,13,04,25.10
2018,06,17,13,05,25.20
2018,06,17,13,06,25.40
2018,06,17,13,07,25.60
2018,06,17,13,08,25.80
2018,06,17,13,09,25.90
2018,06,17,13,10,26.10
2018,06,17,13,11,26.20
2018,06,17,13,12,26.40
2018,06,17,13,13,26.60
2018,06,17,13,14,26.60
2018,06,17,13,15,26.70
2018,06,17,13,16,26.90
2018,06,17,13,17,27.00
2018,06,17,13,18,27.10
2018,06,17,13,19,27.10
2018,06,17,13,20,27.10
2018,06,17,13,21,27.20
2018,06,17,13,22,27.20
2018,06,17,13,23,27.20
2018,06,17,13,24,27.20
2018,06,17,13,25,27.20
2018,06,17,13,26,27.20
2018,06,17,13,27,27.10
2018,06,17,13,28,27.00
2018,06,17,13,29,26.80
2018,06,17,13,30,26.70
2018,06,17,13,31,26.70
2018,06,17,13,32,26.70
2018,06,17,13,33,26.60
2018,06,17,13,34,26.50
2018,06,17,13,35,26.40
2018,06,17,13,36,26.30
2018,06,17,13,37,26.20
2018,06,17,13,38,26.00
2018,06,17,13,39,25.90
2018,06,17,13,40,25.90
2018,06,17,13,41,25.80
2018,06,17,13,42,25.80
2018,06,17,13,43,25.80
2018,06,17,13,44,25.90
2018,06,17,13,45,25.90
2018,06,17,13,46,26.00
2018,06,17,13,47,26.10
2018,06,17,13,48,26.20
2018,06,17,13,49,26.20
2018,06,17,13,50,26.30
2018,06,17,13,51,26.40
2018,06,17,13,52,26.40
2018,06,17,13,53,26.40
2018,06,17,13,54,26.50
2018,06,17,13,55,26.50
2018,06,17,13,56,26.60
2018,06,17,13,57,26.60
2018,06,17,13,58,26.50
2018,06,17,13,59,26.40
2018,06,17,14,00,26.40
2018,06,17,14,01,26.40
2018,06,17,14,02,26.30
2018,06,17,14,03,26.30
2018,06,17,14,04,26.30
2018,06,17,14,05,26.30
2018,06,17,14,06,26.50
2018,06,17,14,07,26.60
2018,06,17,14,08,26.80
2018,06,17,14,09,26.90
2018,06,17,14,10,27.10
2018,06,17,14,11,27.10
2018,06,17,14,12,26.90
2018,06,17,14,13,26.80
2018,06,17,14,14,26.80
2018,06,17,14,15,26.90
2018,06,17,14,16,26.90
2018,06,17,14,17,27.00
2018,06,17,14,18,27.10
2018,06,17,14,19,27.20
2018,06,17,14,20,27.30
2018,06,17,14,21,27.30
2018,06,17,14,22,27.30
2018,06,17,14,23,27.30
2018,06,17,14,24,27.30
2018,06,17,14,25,27.40
2018,06,17,14,26,27.50
2018,06,17,14,27,27.60
2018,06,17,14,28,27.60
2018,06,17,14,29,27.60
2018,06,17,14,30,27.70
2018,06,17,14,31,27.90
2018,06,17,14,32,28.00
2018,06,17,14,33,28.00
2018,06,17,14,34,28.10
2018,06,17,14,35,28.20
2018,06,17,14,36,28.20
2018,06,17,14,37,28.20
2018,06,17,14,38,28.10
2018,06,17,14,39,28.00
2018,06,17,14,40,28.00
2018,06,17,14,41,27.90
2018,06,17,14,42,27.80
2018,06,17,14,43,27.90
2018,06,17,14,44,27.90
2018,06,17,14,45,27.90
2018,06,17,14,46,27.90
2018,06,17,14,47,28.00
2018,06,17,14,48,28.00
2018,06,17,14,49,28.00
2018,06,17,14,50,28.10
2018,06,17,14,51,28.10
2018,06,17,14,52,28.20
2018,06,17,14,53,28.20
2018,06,17,14,54,28.20
2018,06,17,14,55,28.20
2018,06,17,14,56,28.10
2018,06,17,14,57,28.10
2018,06,17,14,58,28.10
2018,06,17,14,59,28.10
2018,06,17,15,00,28.10
2018,06,17,15,01,28.20
2018,06,17,15,02,28.20
2018,06,17,15,03,28.20
2018,06,17,15,04,28.10
2018,06,17,15,05,28.10
2018,06,17,15,06,28.10
2018,06,17,15,07,28.00
2018,06,17,15,08,27.90
2018,06,17,15,09,27.80
2018,06,17,15,10,27.70
2018,06,17,15,11,27.70
2018,06,17,15,12,27.70
2018,06,17,15,13,27.70
2018,06,17,15,14,27.70
2018,06,17,15,15,27.70
2018,06,17,15,16,27.70
2018,06,17,15,17,27.70
2018,06,17,15,18,27.60
2018,06,17,15,19,27.40
2018,06,17,15,20,27.30
2018,06,17,15,21,27.10
2018,06,17,15,22,27.00
2018,06,17,15,23,26.90
2018,06,17,15,24,26.90
2018,06,17,15,25,26.80
2018,06,17,15,26,26.80
2018,06,17,15,27,26.70
2018,06,17,15,28,26.70
2018,06,17,15,29,26.70
2018,06,17,15,30,26.70
2018,06,17,15,31,26.80
2018,06,17,15,32,26.80
2018,06,17,15,33,26.90
2018,06,17,15,34,27.10
2018,06,17,15,35,27.10
2018,06,17,15,36,27.20
2018,06,17,15,37,27.30
2018,06,17,15,38,27.40
2018,06,17,15,39,27.50
2018,06,17,15,40,27.60
2018,06,17,15,41,27.60
2018,06,17,15,42,27.60
2018,06,17,15,43,27.60
2018,06,17,15,44,27.60
2018,06,17,15,45,27.70
2018,06,17,15,46,27.80
2018,06,17,15,47,27.80
2018,06,17,15,48,27.70
2018,06,17,15,49,27.70
2018,06,17,15,50,27.80
2018,06,17,15,51,27.90
2018,06,17,15,52,28.00
2018,06,17,15,53,28.00
2018,06,17,15,54,28.00
2018,06,17,15,55,27.80
2018,06,17,15,56,27.70
2018,06,17,15,57,27.60
2018,06,17,15,58,27.70
2018,06,17,15,59,27.70
2018,06,17,16,00,27.70
2018,06,17,16,01,27.80
2018,06,17,16,02,27.80
2018,06,17,16,03,27.80
2018,06,17,16,04,27.80
2018,06,17,16,05,27.80
2018,06,17,16,06,27.90
2018,06,17,16,07,27.90
2018,06,17,16,08,28.00
2018,06,17,16,09,28.10
2018,06,17,16,10,28.10
2018,06,17,16,11,28.10
2018,06,17,16,12,28.20
2018,06,17,16,13,28.10
2018,06,17,16,14,28.10
2018,06,17,16,15,28.20
2018,06,17,16,16,28.20
2018,06,17,16,17,28.10
2018,06,17,16,18,28.10
2018,06,17,16,19,28.20
2018,06,17,16,20,28.20
2018,06,17,16,21,28.20
2018,06,17,16,22,28.30
2018,06,17,16,23,28.30
2018,06,17,16,24,28.30
2018,06,17,16,25,28.40
2018,06,17,16,26,28.50
2018,06,17,16,27,28.60
2018,06,17,16,28,28.70
2018,06,17,16,29,28.80
2018,06,17,16,30,28.90
2018,06,17,16,31,28.90
2018,06,17,16,32,28.90
2018,06,17,16,33,29.10
2018,06,17,16,34,29.30
2018,06,17,16,35,29.40
2018,06,17,16,36,29.40
2018,06,17,16,37,29.60
2018,06,17,16,38,29.70
2018,06,17,16,39,29.70
2018,06,17,16,40,29.80
2018,06,17,16,41,29.80
2018,06,17,16,42,29.90
2018,06,17,16,43,30.00
2018,06,17,16,44,30.20
2018,06,17,16,45,30.20
2018,06,17,16,46,30.20
2018,06,17,16,47,30.20
2018,06,17,16,48,30.20
2018,06,17,16,49,30.20
2018,06,17,16,50,30.20
2018,06,17,16,51,30.20
2018,06,17,16,52,30.10
2018,06,17,16,53,29.90
2018,06,17,16,54,29.60
2018,06,17,16,55,29.30
2018,06,17,16,56,29.20
2018,06,17,16,57,29.00
2018,06,17,16,58,28.90
2018,06,17,16,59,28.90
2018,06,17,17,00,28.90
2018,06,17,17,01,28.90
2018,06,17,17,02,28.90
2018,06,17,17,03,28.80
2018,06,17,17,04,28.80
2018,06,17,17,05,28.80
2018,06,17,17,06,28.80
2018,06,17,17,07,28.80
2018,06,17,17,08,28.90
2018,06,17,17,09,28.90
2018,06,17,17,10,28.90
2018,06,17,17,11,28.90
2018,06,17,17,12,29.00
2018,06,17,17,13,29.10
2018,06,17,17,14,29.30
2018,06,17,17,15,29.40
2018,06,17,17,16,29.50
2018,06,17,17,17,29.60
2018,06,17,17,18,29.70
2018,06,17,17,19,29.80